Regional Weather Roundup
Issued by NWS

Home | Current Version | Previous Version | Graphics & Text | Print | Product List | Glossary On
Versions: 1 2 3 4 5 6 7 8 9 10 11 12 13 14 15 16 17 18 19 20 21 22 23 24 25 26 27 28 29 30 31 32 33 34 35 36 37 38 39 40 41 42 43 44 45 46 47 48 49 50
000
ASUS45 KBOU 022307
RWRCO

WEATHER ROUNDUP FOR COLORADO
NATIONAL WEATHER SERVICE DENVER/BOULDER CO
400 PM MST MON MAR 02 2015

NOTE: "FAIR" INDICATES FEW OR NO CLOUDS BELOW 12000 FEET WITH NO
SIGNIFICANT WEATHER AND/OR OBSTRUCTIONS TO VISIBILITY.

COZ001>005-013-030-031-030000-
...NORTHWEST COLORADO...

CITY           SKY/WX    TMP DP  RH WIND       PRES   REMARKS
CRAIG          PTSUNNY   45  34  65 SW7       29.59F
HAYDEN         PTSUNNY   45  28  53 SW13      29.59F
MEEKER         PTSUNNY   45  35  68 S9        29.60F
MOUNT WERNER   NOT AVBL
STEAMBOAT SPGS CLOUDY    38  33  82 CALM      29.62F
WALDEN         CLOUDY    37  27  65 S15G22    29.64F
$$

COZ006>008-011-030000-
...WEST CENTRAL VALLEYS...

CITY           SKY/WX    TMP DP  RH WIND       PRES   REMARKS
GRAND JUNCTION RAIN      41  39  93 NW17      29.66R FOG
MONTROSE       NOT AVBL
EAGLE          CLOUDY    46  36  66 NE8       29.65F
RIFLE          CLOUDY    44  38  79 W5        29.59F
DELTA          CLOUDY    56  35  45 SW15G24   29.65R
NUCLA          LGT RAIN  41  37  87 SW14G29   29.74R
$$

COZ017>023-064>068-030000-
...SOUTHWEST COLORADO...

CITY           SKY/WX    TMP DP  RH WIND       PRES   REMARKS
DURANGO        NOT AVBL
CORTEZ         CLOUDY    43  37  79 S17G23    29.76R
PAGOSA SPRINGS DRIZZLE   39  37  93 S9G20     29.83F
TELLURIDE      LGT SNOW  36  31  81 SE23G35   29.78R
WOLF CREEK PAS CLOUDY    25  25 100 SW26G38     N/A  WCI   9
$$

COZ009-010-012-014-032>034-037-058>063-030000-
...CENTRAL COLORADO...

CITY           SKY/WX    TMP DP  RH WIND       PRES   REMARKS
ASPEN          CLOUDY    43  27  53 S10G18    29.66F
BUENA VISTA    CLOUDY    42  26  53 SE13G24   29.70F
COPPER MTN     FLURRIES  30  19  64 SE24G30   29.78F WCI  16
BERTHOUD PASS  PTSUNNY   25  19  80 MISG      29.81F
COTTONWOOD PAS CLOUDY    41  19  42 SW12G21   29.75F
GUNNISON       NOT AVBL
KREMMLING      PTSUNNY   43  30  61 SW7       29.68F
LEADVILLE      CLOUDY    33  19  56 S15       29.74F WCI  23
SALIDA         CLOUDY    47  29  51 S13G18    29.78F
SUNLIGHT       CLOUDY    32  30  93 CALM        N/A  FOG
WILKERSON PASS PTSUNNY   32  21  64 S5        29.82F WCI  27
$$

COZ069>075-030000-
...SAN LUIS VALLEY/SANGRE DE CRISTO MOUNTAINS...

CITY           SKY/WX    TMP DP  RH WIND       PRES   REMARKS
ALAMOSA        CLOUDY    40  31  70 S18       29.79F
LA VETA PASS   PTSUNNY   34  28  80 S21G43    29.81F WCI  22
SAGUACHE       PTSUNNY   43  32  65 S8        29.78F
$$

COZ035-036-038>040-030000-
...NORTHERN COLORADO FRONT RANGE...

CITY           SKY/WX    TMP DP  RH WIND       PRES   REMARKS
DENVER INTL AP PTSUNNY   33  23  66 N7        29.66F HAZE    WCI  27
DMNS CITY PARK   N/A     36  22  56 E3G9      29.65F
AURORA         PTSUNNY   32  22  68 N5        29.66F WCI  27
FRONT RANGE AP NOT AVBL
ERIE MUNI ARPT PTSUNNY   32  23  69 N3        29.68F
BOULDER MUN AP PTSUNNY   32  23  69 N3        29.67F HAZE
CENTENNIAL     PTSUNNY   40  24  53 CALM      29.64F HAZE
BROOMFIELD     PTSUNNY   30  23  74 W6        29.67F HAZE    WCI  24
FORT COLLINS   PTSUNNY   34  25  69 W3        29.69F
LONGMONT       PTSUNNY   37  24  57 W3        29.70F
$$

COZ041-046-047-076>085-087-088-030000-
...PIKES PEAK/PALMER DIVIDE AND SOUTHERN FOOTHILLS...

CITY           SKY/WX    TMP DP  RH WIND       PRES   REMARKS
COLO. SPRINGS  PTSUNNY   34  26  72 SE7       29.75F WCI  28
A. F. ACADEMY  MOSUNNY   34  25  69 S12       29.72F WCI  26
ELLICOTT       NOT AVBL
FALCON         MOSUNNY   33  26  74 CALM      29.75F
FORT CARSON    MOSUNNY   34  28  78 VRB2      29.73F
LIMON          PTSUNNY   29  26  89 S21       29.74F WCI  16
MONUMENT HILL  MOSUNNY   41  27  56 S14       29.69F
TRINIDAD       CLOUDY    50  34  54 W20       29.74F
$$

COZ042>045-048>051-090-091-030000-
...NORTHEAST COLORADO...

CITY           SKY/WX    TMP DP  RH WIND       PRES   REMARKS
GREELEY ARPT   CLOUDY    39  23  52 SW6       29.66F
AKRON          CLOUDY    36  27  69 SE20      29.69F
BURLINGTON     CLOUDY    33  28  81 S23       29.78F WCI  21
WRAY           CLOUDY    34  27  77 S17G24    29.79F WCI  23
STERLING       CLOUDY    37  28  70 SE15      29.71F
HOLYOKE        NOT AVBL
FORT MORGAN    CLOUDY    43  27  54 SE10      29.67F
$$

COZ086-089-092>099-030000-
...SOUTHEAST COLORADO...

CITY           SKY/WX    TMP DP  RH WIND       PRES   REMARKS
PUEBLO         MOSUNNY   36  30  79 CALM      29.75F
LA JUNTA       CLOUDY    43  32  65 NE8       29.75F
LAMAR          CLOUDY    41  33  73 SE14      29.76F
SPRINGFIELD      N/A     37  31  78 S23G30    29.80F
$$



USA.gov is the U.S. government's official web portal to all federal, state and local government web resources and services.